When you browse on this site, cookies collect data to enhance your experience and personalize the content and advertising you see.
Visit our Privacy Policy to learn more. By continuing to use the site, you agree to this use of cookies and data.
  • In Österreich
  • Länderverzeichnis
  • Für 7 Tage
  • Wassertemperatur
  • Satellitenkarten
  • Wetterkarte
  • News
  • Widgets
  • user-avatar
    Anmelden

    Stündliche Wetter Podbolote

    Heute, 23 Juli, Dienstag

    Zeit Temperatur Niederschläge Wind Luftdruck Luftfeuchtigkeit
    00:00 +14°C° 0 mm 3 m/S 749 mmHg 93%
    01:00 +13°C° 0 mm 3 m/S 749 mmHg 93%
    02:00 +13°C° 0 mm 3 m/S 749 mmHg 96%
    03:00 +13°C° 0 mm 3 m/S 749 mmHg 96%
    04:00 +12°C° 0 mm 3 m/S 749 mmHg 97%
    05:00 +12°C° 0 mm 3 m/S 749 mmHg 97%
    06:00 +13°C° 0 mm 4 m/S 749 mmHg 93%
    07:00 +14°C° 0 mm 4 m/S 749 mmHg 90%
    08:00 +15°C° 0 mm 4 m/S 749 mmHg 87%
    09:00 +17°C° 0 mm 5 m/S 749 mmHg 80%
    10:00 +19°C° 0 mm 5 m/S 749 mmHg 74%
    11:00 +21°C° 0 mm 5 m/S 749 mmHg 68%
    12:00 +21°C° 0.1 mm 5 m/S 749 mmHg 67%
    13:00 +22°C° 0.1 mm 5 m/S 748 mmHg 66%
    14:00 +22°C° 0.1 mm 5 m/S 748 mmHg 66%
    15:00 +22°C° 0.5 mm 5 m/S 748 mmHg 69%
    16:00 +22°C° 0.5 mm 5 m/S 748 mmHg 72%
    17:00 +21°C° 0.5 mm 4 m/S 748 mmHg 75%
    18:00 +20°C° 0.1 mm 4 m/S 748 mmHg 79%
    19:00 +19°C° 0.1 mm 3 m/S 748 mmHg 83%
    20:00 +18°C° 0.1 mm 3 m/S 748 mmHg 87%
    21:00 +18°C° 0 mm 3 m/S 748 mmHg 89%
    22:00 +17°C° 0 mm 3 m/S 748 mmHg 91%
    23:00 +16°C° 0 mm 3 m/S 748 mmHg 93%

    Morgen, 24 Juli, Mittwoch

    Zeit Temperatur Niederschläge Wind Luftdruck Luftfeuchtigkeit
    00:00 +16°C° 0 mm 3 m/S 748 mmHg 95%
    01:00 +14°C° 0 mm 3 m/S 748 mmHg 96%
    02:00 +14°C° 0 mm 3 m/S 748 mmHg 97%
    03:00 +14°C° 0 mm 3 m/S 748 mmHg 97%
    04:00 +14°C° 0 mm 3 m/S 748 mmHg 97%
    05:00 +13°C° 0 mm 3 m/S 748 mmHg 98%
    06:00 +16°C° 0 mm 3 m/S 748 mmHg 95%
    07:00 +17°C° 0 mm 3 m/S 748 mmHg 92%
    08:00 +18°C° 0 mm 3 m/S 748 mmHg 90%
    09:00 +19°C° 0.5 mm 3 m/S 748 mmHg 85%
    10:00 +21°C° 0.5 mm 3 m/S 748 mmHg 81%
    11:00 +22°C° 0.5 mm 4 m/S 748 mmHg 76%
    12:00 +24°C° 0.9 mm 3 m/S 748 mmHg 73%
    13:00 +24°C° 0.9 mm 3 m/S 748 mmHg 70%
    14:00 +25°C° 0.9 mm 3 m/S 748 mmHg 67%
    15:00 +25°C° 0.3 mm 3 m/S 748 mmHg 67%
    16:00 +25°C° 0.3 mm 3 m/S 748 mmHg 67%
    17:00 +25°C° 0.3 mm 3 m/S 748 mmHg 66%
    18:00 +24°C° 0 mm 3 m/S 748 mmHg 71%
    19:00 +21°C° 0 mm 2 m/S 748 mmHg 76%
    20:00 +20°C° 0 mm 2 m/S 748 mmHg 81%
    21:00 +19°C° 0 mm 2 m/S 748 mmHg 83%
    22:00 +18°C° 0 mm 2 m/S 749 mmHg 85%
    23:00 +17°C° 0 mm 2 m/S 749 mmHg 87%

    übermorgen, 25 Juli, Donnerstag

    Zeit Temperatur Niederschläge Wind Luftdruck Luftfeuchtigkeit
    00:00 +16°C° 0 mm 2 m/S 749 mmHg 87%
    01:00 +16°C° 0 mm 2 m/S 749 mmHg 88%
    02:00 +15°C° 0 mm 2 m/S 749 mmHg 89%
    03:00 +15°C° 0 mm 2 m/S 749 mmHg 89%
    04:00 +15°C° 0 mm 2 m/S 749 mmHg 90%
    05:00 +15°C° 0 mm 2 m/S 749 mmHg 91%
    06:00 +17°C° 0 mm 2 m/S 749 mmHg 85%
    07:00 +18°C° 0 mm 2 m/S 749 mmHg 80%
    08:00 +20°C° 0 mm 2 m/S 749 mmHg 74%
    09:00 +23°C° 0 mm 2 m/S 749 mmHg 69%
    10:00 +24°C° 0 mm 2 m/S 749 mmHg 63%
    11:00 +25°C° 0 mm 2 m/S 749 mmHg 58%
    12:00 +25°C° 0.3 mm 3 m/S 749 mmHg 59%
    13:00 +26°C° 0.3 mm 3 m/S 748 mmHg 60%
    14:00 +26°C° 0.3 mm 3 m/S 748 mmHg 62%
    15:00 +25°C° 0.7 mm 3 m/S 748 mmHg 65%
    16:00 +25°C° 0.7 mm 3 m/S 748 mmHg 69%
    17:00 +24°C° 0.7 mm 3 m/S 747 mmHg 73%
    18:00 +22°C° 0.2 mm 3 m/S 747 mmHg 78%
    19:00 +20°C° 0.2 mm 2 m/S 747 mmHg 83%
    20:00 +19°C° 0.2 mm 2 m/S 747 mmHg 88%
    21:00 +18°C° 0 mm 2 m/S 747 mmHg 90%
    22:00 +17°C° 0 mm 2 m/S 747 mmHg 92%
    23:00 +17°C° 0 mm 3 m/S 747 mmHg 93%

    26 Juli, Freitag

    Zeit Temperatur Niederschläge Wind Luftdruck Luftfeuchtigkeit
    00:00 +16°C° 0 mm 3 m/S 747 mmHg 94%
    01:00 +16°C° 0 mm 3 m/S 747 mmHg 95%
    02:00 +15°C° 0 mm 2 m/S 746 mmHg 96%
    03:00 +15°C° 0 mm 2 m/S 746 mmHg 97%
    04:00 +15°C° 0 mm 2 m/S 746 mmHg 97%
    05:00 +14°C° 0 mm 2 m/S 746 mmHg 97%
    06:00 +14°C° 0 mm 3 m/S 746 mmHg 94%
    07:00 +16°C° 0 mm 3 m/S 746 mmHg 91%
    08:00 +18°C° 0 mm 3 m/S 746 mmHg 87%
    09:00 +19°C° 0.2 mm 4 m/S 746 mmHg 83%
    10:00 +20°C° 0.2 mm 4 m/S 746 mmHg 79%
    11:00 +21°C° 0.2 mm 4 m/S 747 mmHg 74%
    12:00 +22°C° 1 mm 4 m/S 746 mmHg 74%
    13:00 +22°C° 1 mm 4 m/S 746 mmHg 73%
    14:00 +22°C° 1 mm 5 m/S 746 mmHg 72%
    15:00 +22°C° 0.1 mm 5 m/S 746 mmHg 74%
    16:00 +22°C° 0.1 mm 5 m/S 746 mmHg 75%
    17:00 +22°C° 0.1 mm 6 m/S 745 mmHg 77%
    18:00 +21°C° 0.5 mm 5 m/S 745 mmHg 81%
    19:00 +20°C° 0.5 mm 4 m/S 745 mmHg 86%
    20:00 +18°C° 0.5 mm 4 m/S 745 mmHg 90%
    21:00 +18°C° 0.3 mm 4 m/S 745 mmHg 92%
    22:00 +17°C° 0.3 mm 4 m/S 745 mmHg 94%
    23:00 +17°C° 0.3 mm 4 m/S 745 mmHg 96%

    27 Juli, Samstag

    Zeit Temperatur Niederschläge Wind Luftdruck Luftfeuchtigkeit
    00:00 +17°C° 0.1 mm 3 m/S 745 mmHg 97%
    01:00 +16°C° 0.1 mm 3 m/S 745 mmHg 97%
    02:00 +16°C° 0.1 mm 3 m/S 745 mmHg 98%
    03:00 +16°C° 0 mm 3 m/S 745 mmHg 98%
    04:00 +16°C° 0 mm 3 m/S 745 mmHg 97%
    05:00 +17°C° 0 mm 3 m/S 745 mmHg 97%
    06:00 +17°C° 0.2 mm 3 m/S 745 mmHg 97%
    07:00 +17°C° 0.2 mm 2 m/S 745 mmHg 97%
    08:00 +17°C° 0.2 mm 2 m/S 745 mmHg 97%
    09:00 +19°C° 0.2 mm 2 m/S 745 mmHg 92%
    10:00 +20°C° 0.2 mm 3 m/S 745 mmHg 88%
    11:00 +21°C° 0.2 mm 3 m/S 745 mmHg 84%
    12:00 +22°C° 1 mm 4 m/S 744 mmHg 83%
    13:00 +23°C° 1 mm 4 m/S 744 mmHg 82%
    14:00 +23°C° 1 mm 5 m/S 744 mmHg 81%
    15:00 +23°C° 0.8 mm 5 m/S 744 mmHg 81%
    16:00 +23°C° 0.8 mm 5 m/S 743 mmHg 81%
    17:00 +23°C° 0.8 mm 5 m/S 743 mmHg 81%
    18:00 +22°C° 0.6 mm 5 m/S 743 mmHg 84%
    19:00 +21°C° 0.6 mm 5 m/S 743 mmHg 88%
    20:00 +20°C° 0.6 mm 4 m/S 743 mmHg 91%
    21:00 +20°C° 0 mm 4 m/S 743 mmHg 93%
    22:00 +19°C° 0 mm 3 m/S 743 mmHg 95%
    23:00 +18°C° 0 mm 3 m/S 743 mmHg 96%

    28 Juli, Sonntag

    Zeit Temperatur Niederschläge Wind Luftdruck Luftfeuchtigkeit
    00:00 +18°C° 0 mm 3 m/S 743 mmHg 96%
    01:00 +18°C° 0 mm 3 m/S 743 mmHg 97%
    02:00 +17°C° 0 mm 3 m/S 743 mmHg 97%
    03:00 +17°C° 0 mm 3 m/S 743 mmHg 97%
    04:00 +17°C° 0 mm 3 m/S 743 mmHg 97%
    05:00 +17°C° 0 mm 2 m/S 743 mmHg 97%
    06:00 +18°C° 0 mm 3 m/S 744 mmHg 94%
    07:00 +19°C° 0 mm 3 m/S 744 mmHg 92%
    08:00 +21°C° 0 mm 3 m/S 744 mmHg 89%
    09:00 +22°C° 0.4 mm 4 m/S 744 mmHg 82%
    10:00 +25°C° 0.4 mm 4 m/S 744 mmHg 76%
    11:00 +26°C° 0.4 mm 4 m/S 744 mmHg 69%
    12:00 +27°C° 0.1 mm 4 m/S 744 mmHg 65%
    13:00 +28°C° 0.1 mm 4 m/S 743 mmHg 62%
    14:00 +28°C° 0.1 mm 4 m/S 743 mmHg 59%
    15:00 +28°C° 0.2 mm 4 m/S 743 mmHg 62%
    16:00 +28°C° 0.2 mm 4 m/S 743 mmHg 66%
    17:00 +27°C° 0.2 mm 4 m/S 743 mmHg 69%
    18:00 +26°C° 0.1 mm 3 m/S 743 mmHg 75%
    19:00 +24°C° 0.1 mm 3 m/S 743 mmHg 80%
    20:00 +22°C° 0.1 mm 3 m/S 743 mmHg 85%
    21:00 +21°C° 0.1 mm 3 m/S 743 mmHg 88%
    22:00 +20°C° 0.1 mm 3 m/S 743 mmHg 91%
    23:00 +19°C° 0.1 mm 3 m/S 744 mmHg 93%
    Mehr zeigen